www.pogodaiklimat.ru
Время
и дата
23:53 29.12
00:53 30.12
01:53 30.12
02:53 30.12
03:53 30.12
04:23 30.12
04:45 30.12
04:53 30.12
05:53 30.12
06:53 30.12
07:53 30.12
08:53 30.12
09:28 30.12
09:30 30.12
09:53 30.12
10:53 30.12
11:53 30.12
12:53 30.12
13:53 30.12
14:53 30.12
15:53 30.12
16:42 30.12
16:53 30.12
17:53 30.12
18:53 30.12
19:00 30.12
19:53 30.12
20:53 30.12
21:53 30.12
22:18 30.12
22:39 30.12
22:53 30.12
23:53 30.12
00:53 31.12
01:53 31.12
02:53 31.12
03:53 31.12
04:53 31.12
05:53 31.12
06:53 31.12
07:53 31.12
08:53 31.12
09:53 31.12
10:53 31.12
11:53 31.12
12:53 31.12
13:53 31.12
14:53 31.12
Ветер
(напр.,м/с)
Видим. Явления Облачность Т
(С)
Тd
(С)
f
(%)
Тe
(С)
Тes
(С)
Комфортность P
(гПа)
Po
(гПа)
Тmin
(С)
Tmax
(С)
R
(мм)
R24
(мм)
S
(см)
штиль 0 16 км 8/8 1950 м +10.0 +8.9 93 +9 +9 1009.2 1009.0
штиль 0 11 км 8/8 1800 м +9.4 +8.9 97 +8 +8 1009.1 1008.7
штиль 0 16 км 8/8 1650 м +9.4 +8.3 93 +9 +9 1008.8 1008.3
СВ 1 16 км 10/10 1380 м +9.4 +8.3 93 +8 +8 1008.8 1008.3
СВ 1 16 км 8/8 1950 м +8.9 +7.8 93 +6 +6 1008.2 1007.7 +8.9 +11.1 5.3
штиль 0 16 км 8/8 750 м +9.4 +8.3 93 +9 +9 1007.7
С 1 16 км 10/8 810 м
[Ac]
+8.9 +7.8 93 +7 +7 1007.7
штиль 0 16 км 10/5 900 м
[Ac]
+9.4 +8.3 93 +9 +9 1008.1 1007.7
З 1 16 км 10/8 1650 м
[Ac]
+8.9 +7.8 93 +7 +7 1008.5 1008.0
штиль 0 16 км 8/8 450 м +8.9 +7.8 93 +8 +8 1008.9 1008.3
штиль 0 16 км 10/10 1080 м +10.0 +8.3 89 +9 +9 1009.0 1008.7
штиль 0 16 км 10/10 1170 м +11.7 +10.6 93 +11 +11 1009.8 1009.3
СВ 2 6 км слабый дождь 10/10 840 м +12.8 +10.0 83 +11 +11 1010.0
СВ 2 6 км слабый дождь 10/10 840 м +12.8 +10.0 83 +11 +11 1010.0
В 2 16 км 10/10 750 м +13.3 +10.0 80 +12 +12 1010.2 1009.7 +8.3 +13.3 0.3
ЮВ 2 16 км 10/10 960 м +15.0 +10.0 72 +14 +14 1010.1 1009.7
В 3
{4}
10 км слабый дождь 10/10 930 м +13.9 +10.0 77 +12 +12 1009.8 1009.3
В 2 16 км слабый дождь 10/8 750 м
[Ac]
+13.3 +11.7 90 +11 +12 1009.2 1008.7 2.8
В 3 16 км 8/8 810 м
[Ac]
+15.0 +11.7 81 +13 +14 1008.6 1008.3
В 2 16 км 8/8 810 м
[Ac]
+13.9 +11.1 83 +12 +13 1008.8 1008.3
ЮВ 2 16 км 8/5 1050 м
[Ac]
+14.4 +10.6 78 +13 +13 1008.8 1008.3 +12.8 +15.6 2.8
С 1 4 км слабый дождь 10/10 270 м +13.3 +10.0 80 +13 +13 1008.7
С 1 4 км слабый дождь, дымка 10/10 270 м +12.8 +10.6 86 +11 +11 1009.1 1008.7
штиль 0 10 км дымка 10/10 750 м +12.8 +11.1 89 +12 +12 1009.5 1009.0
СВ 1 10 км дымка 10/10 750 м +12.8 +11.1 89 +12 +12 1009.6 1009.3 0.3
штиль 0 16 км дымка 10/10 840 м +12.8 +10.6 86 +12 +12 1009.3
штиль 0 16 км дымка 10/10 1110 м +11.7 +10.6 93 +11 +11 1009.5 1009.0
штиль 0 14 км 8/8 1410 м +11.1 +10.6 97 +10 +10 1009.4 1009.0
штиль 0 16 км 2/2 1350 м +10.6 +10.0 96 +10 +10 1009.4 1009.0 +10.0 +13.9 0.3
штиль 0 16 км 8/8 810 м +11.1 +10.0 93 +10 +10 1009.3
16 км 5/5 810 м +10.0 +8.9 93 +9 +9 1009.3
В 1 5 км дымка ясно +10.0 +8.3 89 +8 +8 1009.4 1009.0
штиль 0 16 км ясно +8.9 +8.3 96 +8 +8 1009.8 1009.3
штиль 0 16 км 10/10 1500 м +8.9 +8.3 96 +8 +8 1009.5 1009.0
СЗ 1 16 км 2/2 1500 м +8.3 +7.8 97 +6 +6 1008.5 1008.0
штиль 0 16 км ясно +8.3 +7.8 97 +7 +7 1008.1 1007.7
С 1 16 км ясно +7.8 +6.1 89 +5 +5 1007.2 1007.0 +7.8 +11.1 0.3 3.6
ЮВ 1 16 км ясно +9.4 +7.2 86 +8 +8 1006.6 1006.3
штиль 0 16 км ясно +7.2 +6.1 93 +6 +6 1006.7 1006.3
В 2 16 км ясно +10.0 +6.7 80 +7 +7 1006.5 1006.0
штиль 0 16 км ясно +10.0 +7.2 83 +9 +9 1006.6 1006.3
СВ 2 16 км ясно +12.2 +7.8 74 +10 +10 1007.2 1007.0
С 3 16 км ясно +13.3 +7.8 69 +11 +12 1007.8 1007.3 +7.2 +13.9
СВ 2 16 км 2/2 1050 м +15.0 +7.8 62 +14 +16 1007.7 1007.3
З 1 16 км ясно +14.4 +8.3 67 +14 +20 1006.8 1006.3
СЗ 2
{4}
16 км ясно +15.6 +7.2 57 +14 +18 1005.8 1005.3
З 2 16 км ясно +16.1 +6.7 54 +15 +19 1005.7 1005.3
З 4
{4}
16 км 2/2 1470 м +15.6 +6.7 55 +14 +14 1005.7 1005.3
Местоположение метеостанции Santa Barbara Municipal Airport: широта 34.4261 долгота -119.8436 высота над уровнем моря 3 м.
В архиве по умолчанию представлена погода в Санта-Барбаре за последние 1-2 суток. Обновление информации о фактической погоде в базе происходит ежечасно! Архивные данные за месяц целиком и за предыдущие месяцы Вы можете получить, выбрав интересующий диапазон дат из раскрывающегося списка и нажав кнопку "Ввод!".
Внимание! Архив погоды МЕТАР в базе сайта по станциям, не включенным в климатический монитор, хранится не более 60 дней. Нет смысла пытаться выбрать более раннюю дату.
*Определитесь, кто Вы:
Внимание! Время в таблицах - местное (без учета летнего времени). Для получения всемирного времени необходимо вычесть поправку, которая равна -8 ч.
Смотрите также архив погоды в соседних городах и на ближайших метеорологических станциях:
Партнеры нашего сайта:      
Пояснения к столбцам:
  • Ветер - указаны скорость ветра в м/с - средняя за 10 мин, порывы в срок и между сроками (в фигурных скобках) и направление, откуда дует ветер: С - северный,
  • СВ - северо-восточный, В - восточный, ЮВ - юго-восточный, Ю - южный, ЮЗ - юго-западный, З - западный, СЗ - северо-западный.
  • Видимость - горизонтальная дальность видимости в метрах или километрах. При видимости от 1 до 10 км при отсутствии осадков обычно наблюдается дымка, при ухудшении видимости до 1 км и менее - туман. В сухую погоду видимость может ухудшаться дымом, пылью или мглою.
  • Явления - указаны атмосферные явления, наблюдавшиеся в срок или в последний час перед сроком; фигурными скобками обозначены явления, наблюдавшиеся между сроками (за 1-3 часа до срока); квадратными скобками обозначены град или гололедные отложения с указанием их диаметра в мм.
  • Облачность - указаны через наклонную черту общая и нижняя облачность в баллах и высота нижней границы облаков в метрах; квадратными скобками обозначены формы облаков: Ci - перистые, Cs - перисто-слоистые, Cc - перисто-кучевые, Ac - высококучевые, As - высокослоистые, Sc - слоисто-кучевые, Ns - слоисто-дождевые, Cu - кучевые, Cb - кучево-дождевые. Подробнее классификацию облаков см. в Атласе облаков (PDF).
  • T - Температура воздуха - температура, измеренная на высоте 2 м над землей.
  • Td - Температура точки росы - температура, при понижении до которой содержащийся в воздухе водяной пар достигнет насыщения.
  • f - Относительная влажность воздуха - влажноcть воздуха, измеренная на высоте 2 м над землей.
  • Te - Эффективная температура - температура, которую ощущает одетый по сезону человек в тени. Характеристика душности погоды. При расчете учитывается влияние влажности воздуха и скорости ветра на теплоощущения человека.
  • Tes - Эффективная температура на солнце - температура, которую ощущает человек, с поправкой на солнечный нагрев. Характеристика знойности погоды. Зависит от высоты солнца над горизонтом, облачности и скорости ветра. Ночью, в пасмурную погоду, а также при ветре 12 м/с и более поправка равна нулю.
  • P - Атмосферное давление - приведенное к уровню моря атмосферное давление.
  • Po - Атмосферное давление - измеренное на уровне метеостанции атмосферное давление.
  • Tmin - Минимальная температура - минимум температуры воздуха на высоте 2 м над землей.
  • Tmax - Максимальная температура - максимум температуры воздуха на высоте 2 м над землей.
  • R - Количество осадков - Количество выпавших осадков за период времени, мм. При наведении курсора мыши на число - период времени, за который выпало указанное количество осадков.
  • R24 - Количество осадков - Количество выпавших осадков за 24 часа, мм.
  • S - Снежный покров - Высота снежного покрова, см. При наведении курсора мыши на число - состояние снежного покрова и степень покрытия местности в баллах.